[TLELIST] Archives

 

[TLELIST] Current TLEs

March 29th 2023 PDT

HST 1 20580U 90037B 23087.73748109 .00006241 00000-0 33866-3 0 9995 2 20580 28.4698 83.0279 0002611 224.5818 307.9891 15.12517903609267 ISS (ZARYA) 1 25544U 98067A 23088.46018744 .00049479 00000-0 87606-3 0 9998 2 25544 51.6432 3.5570 0005809 146.3940 4.1326 15.49773635389424 CXO 1 25867U 99040B 23088.63222900 .00000995 00000-0 00000-0 0 9998 2 25867 38.5354 206.8832 9034986 254.2848 0.0962 0.37809050 12887 ...Continue Reading

[TLELIST] Current TLEs

March 28th 2023 PDT

HST 1 20580U 90037B 23086.74724642 .00005771 00000-0 31245-3 0 9997 2 20580 28.4697 89.6090 0002651 213.5704 316.4145 15.12505681609116 ISS (ZARYA) 1 25544U 98067A 23087.49332566 .00022535 00000-0 40622-3 0 9992 2 25544 51.6427 8.3435 0005908 141.1668 11.6352 15.49668820389275 CXO 1 25867U 99040B 23088.63222900 .00000995 00000-0 00000-0 0 9998 2 25867 38.5354 206.8832 9034986 254.2848 0.0962 0.37809050 12887 ...Continue Reading

[TLELIST] Current TLEs

March 27th 2023 PDT

HST 1 20580U 90037B 23085.75673499 .00005958 00000-0 32305-3 0 9995 2 20580 28.4694 96.1918 0002684 202.9815 322.9489 15.12494818608960 ISS (ZARYA) 1 25544U 98067A 23086.33125476 .00024988 00000-0 45015-3 0 9999 2 25544 51.6429 14.0948 0005803 135.8715 9.8026 15.49623065389096 CXO 1 25867U 99040B 23088.63143607 .00000995 00000-0 00000-0 0 9994 2 25867 38.5382 206.8915 9034989 254.2761 359.9887 0.37810866 12875 ...Continue Reading

[TLELIST] Current TLEs

March 26th 2023 PDT

HST 1 20580U 90037B 23085.21254757 .00006090 00000-0 33044-3 0 9997 2 20580 28.4694 99.8084 0002737 197.3707 239.5863 15.12488673609142 ISS (ZARYA) 1 25544U 98067A 23085.29744338 .00025913 00000-0 46726-3 0 9996 2 25544 51.6429 19.2151 0005757 132.7658 1.9442 15.49574754388936 CXO 1 25867U 99040B 23085.98844031 .00000877 00000-0 00000+0 0 9996 2 25867 38.5766 207.2020 9033694 254.0214 0.2161 0.37810058 24020 ...Continue Reading

[TLELIST] Current TLEs

March 25th 2023 PDT

HST 1 20580U 90037B 23084.15224523 .00007492 00000-0 40901-3 0 9994 2 20580 28.4691 106.8555 0002798 185.9910 226.2099 15.12475207608981 ISS (ZARYA) 1 25544U 98067A 23084.20248098 .00020046 00000-0 36450-3 0 9993 2 25544 51.6422 24.6365 0005913 125.8938 16.6510 15.49500614388768 CXO 1 25867U 99040B 23085.98844031 .00000877 00000-0 00000+0 0 9996 2 25867 38.5766 207.2020 9033694 254.0214 0.2161 0.37810058 24020 ...Continue Reading

[TLELIST] Current TLEs

March 24th 2023 PDT

HST 1 20580U 90037B 23083.09161392 .00007784 00000-0 42556-3 0 9992 2 20580 28.4691 113.9046 0002846 174.7509 210.9577 15.12459792608824 ISS (ZARYA) 1 25544U 98067A 23083.36411618 .00018007 00000-0 32882-3 0 9998 2 25544 51.6426 28.7875 0006017 126.1976 16.7212 15.49457892388630 CXO 1 25867U 99040B 23083.34371182 .00000827 00000-0 00000-0 0 9992 2 25867 38.6260 207.5581 9030983 253.7295 0.2105 0.37809275 12864 ...Continue Reading

[TLELIST] Current TLEs

March 23rd 2023 PDT

HST 1 20580U 90037B 23081.79479084 .00005842 00000-0 31702-3 0 9991 2 20580 28.4692 122.5230 0002923 161.2445 349.4656 15.12439732608369 ISS (ZARYA) 1 25544U 98067A 23082.39717484 .00016571 00000-0 30373-3 0 9997 2 25544 51.6420 33.5716 0006039 122.8804 22.8850 15.49417071388483 CXO 1 25867U 99040B 23083.34371182 .00000827 00000-0 00000-0 0 9992 2 25867 38.6260 207.5581 9030983 253.7295 0.2105 0.37809275 12864 ...Continue Reading

[TLELIST] Current TLEs

March 23rd 2023 PDT

HST 1 20580U 90037B 23081.79479084 .00005842 00000-0 31702-3 0 9991 2 20580 28.4692 122.5230 0002923 161.2445 349.4656 15.12439732608369 ISS (ZARYA) 1 25544U 98067A 23082.39717484 .00016571 00000-0 30373-3 0 9997 2 25544 51.6420 33.5716 0006039 122.8804 22.8850 15.49417071388483 CXO 1 25867U 99040B 23083.34371182 .00000827 00000-0 00000-0 0 9992 2 25867 38.6260 207.5581 9030983 253.7295 0.2105 0.37809275 12864 ...Continue Reading

[TLELIST] Current TLEs

March 22nd 2023 PDT

HST 1 20580U 90037B 23080.87465102 .00005627 00000-0 30507-3 0 9998 2 20580 28.4694 128.6379 0002961 151.9383 18.8697 15.12428590608228 ISS (ZARYA) 1 25544U 98067A 23081.36343941 .00015575 00000-0 28639-3 0 9991 2 25544 51.6416 38.6887 0006071 118.7594 17.1799 15.49378099388327 CXO 1 25867U 99040B 23080.70076181 .00000923 00000-0 00000-0 0 9997 2 25867 38.6737 207.8868 9026344 253.4689 0.4032 0.37809169 12856 ...Continue Reading

[TLELIST] Current TLEs

March 21st 2023 PDT

HST 1 20580U 90037B 23079.88417470 .00005824 00000-0 31619-3 0 9996 2 20580 28.4694 135.2198 0003006 142.0112 25.2081 15.12417620608077 ISS (ZARYA) 1 25544U 98067A 23080.38988954 .00015304 00000-0 28187-3 0 9999 2 25544 51.6415 43.5078 0006133 115.2181 346.9578 15.49345862388179 CXO 1 25867U 99040B 23080.70076181 .00000923 00000-0 00000-0 0 9997 2 25867 38.6737 207.8868 9026344 253.4689 0.4032 0.37809169 12856 ...Continue Reading
  • This mailing list is a public mailing list - anyone may join or leave, at any time.
  • This mailing list is announce-only.

International Space Station (ISS) / Hubble Space Telescope (HST) / Chandra X-Ray Observatory Orbital Data via EMAIL

Privacy Policy:

Private list